Regional Weather Roundup
Issued by NWS Charleston, WV

Home | Current Version | Previous Version | Graphics & Text | Print | Product List | Glossary On
Versions: 1 2 3 4 5 6 7 8 9 10 11 12 13 14 15 16 17 18 19 20 21 22 23 24 25 26 27 28 29 30 31 32 33 34 35 36 37 38 39 40 41 42 43 44 45 46 47 48 49 50
129
ASUS41 KRLX 311110
RWRRLX
West Virginia Regional Weather Roundup
National Weather Service Charleston WV
700 AM EDT WED AUG 31 2016

Note: "fair" indicates few or no clouds below 12,000 feet with no
significant weather and/or obstructions to visibility.

WVZ003-311200-
Northern Panhandle of West Virginia

CITY           SKY/WX    TMP DP  RH WIND       PRES   REMARKS
WHEELING       CLOUDY    62  57  83 CALM      30.03S
$$

WVZ009-311200-
Northwest West Virginia

CITY           SKY/WX    TMP DP  RH WIND       PRES   REMARKS
PARKERSBURG    PTCLDY    62  60  93 CALM      30.04S
$$

WVZ006-311200-
Western West Virginia

CITY           SKY/WX    TMP DP  RH WIND       PRES   REMARKS
HUNTINGTON     FOG       64  63  96 CALM      30.02S VSB 1/4
$$

WVZ015-311200-
West Central West Virginia

CITY           SKY/WX    TMP DP  RH WIND       PRES   REMARKS
CHARLESTON     FOG       64  63  96 CALM      30.03S VSB 1/4
$$

WVZ022-031-311200-
North Central West Virginia

CITY           SKY/WX    TMP DP  RH WIND       PRES   REMARKS
CLARKSBURG     CLEAR     56  55  97 CALM      30.05R
MORGANTOWN     NOT AVBL
$$

WVZ025-035-042-045-311200-
Southern West Virginia

CITY           SKY/WX    TMP DP  RH WIND       PRES   REMARKS
BECKLEY        CLEAR     65  63  93 CALM      30.11R
LOGAN          FOG       68  68 100 CALM      30.05S VSB<1/4
BLUEFIELD      CLEAR     67  63  87 CALM      30.13S
LEWISBURG      FOG       63  63  99 CALM      30.12R VSB<1/4
$$

WVZ047-311200-
Northern Mountains of West Virginia

CITY           SKY/WX    TMP DP  RH WIND       PRES   REMARKS
ELKINS         FOG       52  50  93 CALM      30.11S VSB 1/4
$$

WVZ052-311200-
Eastern Panhandle of West Virginia

CITY           SKY/WX    TMP DP  RH WIND       PRES   REMARKS
MARTINSBURG    CLEAR     63  61  93 CALM      30.02S FOG
PETERSBURG     CLEAR     60  59  96 CALM      30.05S
$$




USA.gov is the U.S. government's official web portal to all federal, state and local government web resources and services.